Regional Weather Roundup
Issued by NWS Cleveland, OH

Home | Current Version | Previous Version | Graphics & Text | Print | Product List | Glossary On
Versions: 1 2 3 4 5 6 7 8 9 10 11 12 13 14 15 16 17 18 19 20 21 22 23 24 25 26 27 28 29 30 31 32 33 34 35 36 37 38 39 40 41 42 43 44 45 46 47 48 49 50
000
ASUS41 KCLE 312100
RWRCLE
OHIO REGIONAL WEATHER ROUNDUP
NATIONAL WEATHER SERVICE WILMINGTON, OH
500 PM EDT MON AUG 31 2015

NOTE: "FAIR" INDICATES FEW OR NO CLOUDS BELOW 12,000 FEET WITH NO
SIGNIFICANT WEATHER AND/OR OBSTRUCTIONS TO VISIBILITY.

OHZ001>008-015>018-024>027-034-035-043-044-312200-
   NORTHWEST OHIO

CITY           SKY/WX    TMP DP  RH WIND       PRES   REMARKS
DEFIANCE       FAIR      87  66  49 W6        30.04F
FINDLAY        FAIR      87  68  52 SW6       30.04F HX  90
TOLEDO EXPRESS FAIR      85  67  54 W8        30.03F
TOLEDO EXEC    FAIR      86  66  51 W7        30.04F
LIMA           FAIR      85  66  53 SW7       30.06F
$$

OHZ009>014-019>023-028>033-038-089-312200-
   NORTHEAST OHIO

CITY           SKY/WX    TMP DP  RH WIND       PRES   REMARKS
CLE-HOPKINS    FAIR      82  68  62 N8        30.08S
CLE-LAKEFRONT  FAIR      80  69  69 N6        30.05F
CUY CO. ARPT   SUNNY     82  68  61 NW9       30.08F
LORAIN-ELYRIA  FAIR      83  68  60 W3        30.06F
ASHTABULA      FAIR      81  68  64 NW9       30.08S
AKRON-CANTON   PTSUNNY   87  64  46 W8        30.07F
WOOSTER        NOT AVBL
MANSFIELD      FAIR      86  65  49 MISG      30.08F
YOUNGSTOWN     FAIR      84  65  52 NW6       30.06F
$$

OHZ042-051>053-060>062-070>072-077>081-312200-
  SOUTHWEST OHIO

CITY           SKY/WX    TMP DP  RH WIND       PRES   REMARKS
CINC-COVINGTON FAIR      85  66  53 SW7       30.07F
CINC-LUNKEN    PTSUNNY   85  67  54 S7        30.06F
HAMILTON       FAIR      87  67  51 VRB6      30.07F HX  90
DAYTON         NOT AVBL
WRIGHT-PAT AFB NOT AVBL
DAYTON GENERAL PTSUNNY   85  66  53 SW9       30.07F
WILMINGTON     FAIR      83  67  58 S8        30.08F
$$

OHZ036-037-039>041-045>050-054>059-063>069-073>076-082>088-312200-
  CENTRAL AND SOUTHEAST OHIO

CITY           SKY/WX    TMP DP  RH WIND       PRES   REMARKS
COLUMBUS       PTSUNNY   85  65  51 S8        30.06F
OSU AIRPORT    PTSUNNY   86  66  51 W7        30.06F
BOLTON FIELD   SUNNY     82  72  69 S13       30.08S
RICKENBACK AFB NOT AVBL
NEWARK         FAIR      84  67  56 W3        30.06F
MARION         FAIR      85  65  51 VRB5      30.07F
LANCASTER      FAIR      81  67  62 W10       30.08F
ZANESVILLE     FAIR      88  62  41 VRB6      30.06F
NEW PHILLY     FAIR      88  64  44 VRB3      30.06F
$$



USA.gov is the U.S. government's official web portal to all federal, state and local government web resources and services.